Kuiper-00181

operational
NORAD ID: 67137 Int'l Des: 2025-301 Owner: KUIP Country: US Constellation: kuiper
LEOCIRCULAR

关于 Kuiper-00181

正在加载描述...

实时位置

正在加载3D地球...

即将过境

高度历史

Altitude vs Time

uPlot chart will show altitude changes over time

两行轨道根数

1 67137C 25301E 25350.76571759 .00015016 00000+0 44372-3 0 3503
2 67137 51.8634 105.7158 0010010 114.7481 23.2134 15.34283558 18
Epoch: Dec 16, 2025 • Age: 64 hours

当前状态

高度 461.8 km
速度 7.65 km/s
星下点 49.14°N, 108.97°W
发射日期 Dec 16, 2025
运行时间 2 days
类型 internet

技术详情

分类 Payload
质量 490.00 kg
干质量 490.00 kg
总质量 490.00 kg
长度 1.80 m
直径 0.70 m
跨度 5.00 m
形状 Box + 2 pan
制造商 KUIP
平台类型 Kuiper
阶段状态 In Orbit
所有者/国家 KUIP/US

大型星座

Loading constellations...